| time (UTC) | temp F | wind direction | speed knots | gust knots | rain 1hr in | rain 24hr in | rain mn in | humidity % | barometer mb |
| 20260508024518 | 49 | 263 | 0.0 | 0.0 | 0.00 | 0.06 | 0.00 | 95 | 1017.1 |
| 20260508023020 | 49 | 213 | 0.0 | 0.0 | 0.00 | 0.06 | 0.00 | 95 | 1017.1 |
| 20260508021518 | 49 | 171 | 0.0 | 1.7 | 0.00 | 0.06 | 0.00 | 95 | 1017.2 |
| 20260508020016 | 49 | 277 | 0.0 | 0.0 | 0.00 | 0.06 | 0.00 | 95 | 1017.0 |
| 20260508014514 | 49 | 277 | 0.0 | 0.0 | 0.00 | 0.06 | 0.00 | 95 | 1017.0 |
| 20260508013012 | 49 | 277 | 0.0 | 0.9 | 0.00 | 0.06 | 0.00 | 95 | 1017.1 |
| 20260508011511 | 50 | 277 | 0.0 | 1.7 | 0.00 | 0.06 | 0.00 | 95 | 1017.2 |
| 20260508010013 | 50 | 257 | 0.0 | 0.9 | 0.00 | 0.06 | 0.00 | 95 | 1017.4 |
| 20260508004507 | 50 | 257 | 0.0 | 0.9 | 0.00 | 0.06 | 0.00 | 95 | 1017.5 |
| 20260508003006 | 50 | 257 | 0.0 | 0.9 | 0.00 | 0.06 | 0.00 | 95 | 1017.4 |
| 20260508001505 | 50 | 257 | 0.0 | 0.0 | 0.00 | 0.06 | 0.00 | 95 | 1017.6 |
| 20260508000004 | 51 | 257 | 0.0 | 1.7 | 0.00 | 0.06 | 0.00 | 95 | 1017.8 |
| 20260507234502 | 51 | 257 | 0.0 | 0.9 | 0.00 | 0.06 | 0.00 | 95 | 1017.7 |
| 20260507233101 | 51 | 257 | 0.0 | 0.0 | 0.00 | 0.06 | 0.00 | 95 | 1017.8 |
| 20260507231559 | 52 | 257 | 0.0 | 0.0 | 0.00 | 0.06 | 0.00 | 95 | 1017.6 |
| 20260507230105 | 52 | 257 | 0.0 | 0.0 | 0.00 | 0.06 | 0.00 | 95 | 1017.7 |
| 20260507224556 | 53 | 257 | 0.0 | 0.0 | 0.00 | 0.06 | 0.00 | 95 | 1017.6 |
| 20260507223053 | 53 | 257 | 0.0 | 0.0 | 0.00 | 0.06 | 0.00 | 95 | 1017.9 |
| 20260507221550 | 54 | 256 | 0.0 | 0.0 | 0.00 | 0.06 | 0.00 | 95 | 1017.9 |
| 20260507220047 | 54 | 279 | 0.0 | 0.9 | 0.00 | 0.06 | 0.00 | 95 | 1018.1 |
| 20260507214550 | 55 | 355 | 0.0 | 0.9 | 0.00 | 0.06 | 0.06 | 95 | 1018.1 |
| 20260507213055 | 55 | 34 | 0.0 | 0.0 | 0.00 | 0.06 | 0.06 | 95 | 1018.1 |
| 20260507211547 | 55 | 34 | 0.0 | 0.9 | 0.00 | 0.06 | 0.06 | 95 | 1018.1 |
| 20260507210045 | 56 | 5 | 0.0 | 0.0 | 0.00 | 0.06 | 0.06 | 95 | 1018.1 |
| 20260507204553 | 55 | 5 | 0.0 | 0.0 | 0.00 | 0.06 | 0.06 | 95 | 1018.1 |
| 20260507203045 | 56 | 257 | 0.0 | 0.0 | 0.00 | 0.06 | 0.06 | 95 | 1018.1 |
| 20260507201550 | 56 | 257 | 0.0 | 0.0 | 0.00 | 0.06 | 0.06 | 95 | 1018.1 |
| 20260507200051 | 56 | 257 | 0.0 | 1.7 | 0.00 | 0.06 | 0.06 | 95 | 1017.8 |
| 20260507194550 | 57 | 294 | 0.0 | 0.0 | 0.00 | 0.06 | 0.06 | 95 | 1017.9 |
| 20260507193043 | 58 | 294 | 0.0 | 1.7 | 0.00 | 0.06 | 0.06 | 95 | 1017.9 |
| 20260507191556 | 58 | 348 | 0.0 | 0.0 | 0.00 | 0.06 | 0.06 | 95 | 1017.8 |
| 20260507190042 | 58 | 333 | 0.0 | 2.6 | 0.00 | 0.06 | 0.06 | 94 | 1017.7 |
| 20260507184554 | 59 | 327 | 0.0 | 0.0 | 0.00 | 0.06 | 0.06 | 94 | 1017.5 |
| 20260507183045 | 60 | 327 | 0.0 | 0.0 | 0.00 | 0.06 | 0.06 | 94 | 1017.6 |
| 20260507181540 | 60 | 323 | 0.0 | 0.9 | 0.00 | 0.06 | 0.06 | 94 | 1017.6 |
| 20260507180041 | 61 | 271 | 0.0 | 0.0 | 0.00 | 0.06 | 0.06 | 94 | 1017.3 |
| 20260507174539 | 61 | 271 | 0.9 | 1.7 | 0.00 | 0.06 | 0.06 | 93 | 1017.3 |
| 20260507173037 | 62 | 215 | 0.0 | 0.0 | 0.00 | 0.06 | 0.06 | 93 | 1017.1 |
| 20260507171537 | 62 | 215 | 0.0 | 1.7 | 0.00 | 0.06 | 0.06 | 92 | 1017.1 |
| 20260507170037 | 63 | 273 | 0.0 | 0.0 | 0.00 | 0.06 | 0.06 | 91 | 1017.1 |
| 20260507164643 | 63 | 273 | 0.0 | 0.0 | 0.00 | 0.06 | 0.06 | 90 | 1017.3 |
| 20260507163038 | 64 | 273 | 0.0 | 0.0 | 0.00 | 0.06 | 0.06 | 89 | 1017.4 |
| 20260507161539 | 64 | 273 | 0.0 | 0.9 | 0.00 | 0.06 | 0.06 | 86 | 1017.5 |
| 20260507160037 | 66 | 268 | 0.0 | 0.0 | 0.00 | 0.06 | 0.06 | 87 | 1017.7 |
| 20260507154536 | 66 | 268 | 0.0 | 0.9 | 0.00 | 0.06 | 0.06 | 78 | 1017.7 |
| 20260507153033 | 66 | 273 | 0.0 | 0.9 | 0.00 | 0.06 | 0.06 | 84 | 1017.7 |
| 20260507151532 | 65 | 336 | 0.0 | 0.0 | 0.00 | 0.06 | 0.06 | 86 | 1017.6 |
| 20260507150030 | 66 | 29 | 0.9 | 2.6 | 0.00 | 0.06 | 0.06 | 77 | 1017.6 |
| 20260507144530 | 67 | 307 | 0.0 | 1.7 | 0.00 | 0.06 | 0.06 | 78 | 1017.8 |
| 20260507143052 | 67 | 307 | 0.9 | 1.7 | 0.00 | 0.06 | 0.06 | 76 | 1017.9 |
| 20260507141537 | 67 | 198 | 0.0 | 1.7 | 0.00 | 0.06 | 0.06 | 75 | 1018.1 |
| 20260507140025 | 66 | 44 | 0.9 | 1.7 | 0.00 | 0.06 | 0.06 | 76 | 1018.0 |
| 20260507134524 | 66 | 51 | 0.0 | 2.6 | 0.00 | 0.06 | 0.06 | 81 | 1017.8 |
| 20260507133024 | 66 | 32 | 0.0 | 3.5 | 0.00 | 0.06 | 0.06 | 78 | 1018.0 |
| 20260507131521 | 65 | 61 | 1.7 | 3.5 | 0.00 | 0.06 | 0.06 | 78 | 1018.1 |
| 20260507130031 | 65 | 109 | 0.0 | 2.6 | 0.00 | 0.06 | 0.06 | 81 | 1018.2 |
| 20260507124516 | 64 | 123 | 0.0 | 0.9 | 0.00 | 0.06 | 0.06 | 83 | 1018.2 |
| 20260507123015 | 64 | 108 | 0.0 | 2.6 | 0.00 | 0.06 | 0.06 | 85 | 1018.5 |
| 20260507121514 | 63 | 191 | 0.0 | 2.6 | 0.00 | 0.06 | 0.06 | 82 | 1018.4 |
| 20260507120013 | 63 | 259 | 0.0 | 4.3 | 0.00 | 0.06 | 0.06 | 83 | 1018.7 |
| 20260507114517 | 63 | 231 | 0.0 | 2.6 | 0.00 | 0.06 | 0.06 | 87 | 1018.8 |
| 20260507113008 | 62 | 211 | 0.9 | 2.6 | 0.00 | 0.06 | 0.06 | 85 | 1018.8 |
| 20260507111507 | 61 | 170 | 0.0 | 0.9 | 0.01 | 0.06 | 0.06 | 89 | 1019.2 |
| 20260507110004 | 61 | 5 | 0.0 | 1.7 | 0.02 | 0.06 | 0.06 | 89 | 1019.4 |
| 20260507104502 | 61 | 101 | 0.0 | 0.9 | 0.02 | 0.06 | 0.06 | 92 | 1019.6 |
| 20260507103101 | 61 | 208 | 0.0 | 1.7 | 0.03 | 0.06 | 0.06 | 93 | 1020.0 |
| 20260507101602 | 61 | 257 | 0.0 | 0.9 | 0.03 | 0.05 | 0.05 | 92 | 1020.0 |
| 20260507100100 | 60 | 339 | 0.0 | 0.9 | 0.03 | 0.04 | 0.04 | 92 | 1019.9 |
| 20260507094554 | 61 | 355 | 0.0 | 1.7 | 0.03 | 0.03 | 0.03 | 91 | 1019.6 |
| 20260507093053 | 61 | 5 | 0.0 | 2.6 | 0.02 | 0.02 | 0.02 | 91 | 1019.5 |
| 20260507091551 | 61 | 217 | 0.0 | 0.0 | 0.02 | 0.02 | 0.02 | 89 | 1019.5 |
| 20260507090059 | 61 | 217 | 0.0 | 0.0 | 0.01 | 0.01 | 0.01 | 88 | 1019.4 |
| 20260507084553 | 61 | 217 | 0.0 | 1.7 | 0.00 | 0.00 | 0.00 | 89 | 1019.2 |
| 20260507083044 | 62 | 31 | 0.0 | 0.0 | 0.00 | 0.00 | 0.00 | 85 | 1018.8 |
| 20260507081551 | 62 | 31 | 0.0 | 3.5 | 0.00 | 0.00 | 0.00 | 82 | 1018.6 |
| 20260507080039 | 62 | 88 | 0.0 | 1.7 | 0.00 | 0.00 | 0.00 | 82 | 1018.4 |
| 20260507074536 | 61 | 189 | 0.0 | 0.0 | 0.00 | 0.00 | 0.00 | 85 | 1018.1 |
| 20260507073034 | 61 | 230 | 0.0 | 0.9 | 0.00 | 0.00 | 0.00 | 84 | 1017.7 |
| 20260507071536 | 60 | 236 | 0.0 | 1.7 | 0.00 | 0.00 | 0.00 | 82 | 1017.7 |
| 20260507070033 | 60 | 263 | 0.0 | 1.7 | 0.00 | 0.00 | 0.00 | 83 | 1017.6 |
| 20260507064541 | 60 | 173 | 0.0 | 0.9 | 0.00 | 0.00 | 0.00 | 81 | 1017.6 |
| 20260507063024 | 59 | 36 | 0.0 | 1.7 | 0.00 | 0.00 | 0.00 | 82 | 1017.6 |
| 20260507061522 | 58 | 53 | 0.0 | 1.7 | 0.00 | 0.00 | 0.00 | 84 | 1017.7 |
| 20260507060022 | 58 | 40 | 0.0 | 1.7 | 0.00 | 0.00 | 0.00 | 86 | 1017.7 |
| 20260507054515 | 57 | 328 | 0.0 | 0.9 | 0.00 | 0.00 | 0.00 | 86 | 1017.9 |
| 20260507053013 | 57 | 39 | 0.0 | 0.9 | 0.00 | 0.00 | 0.00 | 86 | 1017.7 |
| 20260507051509 | 56 | 37 | 0.0 | 1.7 | 0.00 | 0.00 | 0.00 | 89 | 1017.6 |
| 20260507050010 | 53 | 296 | 0.0 | 0.0 | 0.00 | 0.00 | 0.00 | 93 | 1017.4 |
| 20260507044502 | 52 | 296 | 0.0 | 0.9 | 0.00 | 0.00 | 0.00 | 93 | 1017.2 |
| 20260507043100 | 51 | 230 | 0.0 | 0.0 | 0.00 | 0.00 | 0.00 | 94 | 1017.1 |
| 20260507041559 | 50 | 292 | 0.0 | 0.0 | 0.00 | 0.00 | 0.00 | 94 | 1016.9 |
| 20260507040054 | 50 | 307 | 0.0 | 0.0 | 0.00 | 0.00 | 0.00 | 94 | 1016.7 |
| 20260507034551 | 49 | 321 | 0.0 | 0.9 | 0.00 | 0.00 | 0.00 | 94 | 1016.7 |
| 20260507033051 | 49 | 334 | 0.0 | 0.0 | 0.00 | 0.00 | 0.00 | 94 | 1016.5 |
| 20260507031549 | 49 | 271 | 0.0 | 0.0 | 0.00 | 0.00 | 0.00 | 94 | 1016.4 |
| 20260507030048 | 49 | 271 | 0.0 | 0.0 | 0.00 | 0.00 | 0.00 | 94 | 1016.4 |